Regional Weather Roundup
Issued by NWS

Home | Current Version | Previous Version | Graphics & Text | Print | Product List | Glossary On
Versions: 1 2 3 4 5 6 7 8 9 10 11 12 13 14 15 16 17 18 19 20 21 22 23 24 25 26 27 28 29 30 31 32 33 34 35 36 37 38 39 40 41 42 43 44 45 46 47 48 49 50
652
ASUS43 KLMK 211102
RWRKY
KENTUCKY REGIONAL WEATHER ROUNDUP
NATIONAL WEATHER SERVICE LOUISVILLE KY
700 AM EDT THU SEP 21 2017

NOTE "FAIR" INDICATES FEW OR NO CLOUDS BELOW 12,000 FEET
WITH NO SIGNIFICANT WEATHER AND/OR OBSTRUCTIONS TO VISIBILITY.

KYZ001>023-026-027-061>063-070>075-211200-
WESTERN AND SOUTH CENTRAL KENTUCKY

CITY           SKY/WX    TMP DP  RH WIND       PRES   REMARKS
PADUCAH        CLEAR     70  67  90 CALM      30.02S
HENDERSON      CLEAR     69  68  96 CALM      30.05R FOG
OWENSBORO      CLEAR     70  69  97 SE5       30.05R FOG
HOPKINSVILLE   CLEAR     70  70  99 CALM      30.05S
BOWLING GREEN  CLEAR     66  66 100 CALM      30.07R FOG
GLASGOW        CLEAR    N/A N/A N/A CALM      30.08S FOG
$$

KYZ024-025-028>034-038-045-046-053-211200-
NORTH CENTRAL KENTUCKY

CITY           SKY/WX    TMP DP  RH WIND       PRES   REMARKS
LOUISVILLE/SDF PTCLDY    71  69  93 SE5       30.06R
LOUISVILLE/LOU CLEAR     68  68 100 CALM      30.07R FOG
FORT KNOX      CLEAR     65  65 100 CALM      30.06R FOG
$$

KYZ035>037-039>044-047>052-055>060-089>105-211200-
NORTHEAST KENTUCKY

CITY           SKY/WX    TMP DP  RH WIND       PRES   REMARKS
LEXINGTON      CLEAR     68  65  90 SE6       30.10R
COVINGTON      PTCLDY    67  67 100 CALM      30.09R
FRANKFORT      CLEAR     65  62  90 CALM      30.08R FOG
$$

KYZ054-064>069-076>088-106>120-211200-
SOUTHEAST KENTUCKY

CITY           SKY/WX    TMP DP  RH WIND       PRES   REMARKS
JACKSON        CLEAR     66  64  93 CALM      30.11S
LONDON         MOCLDY    64  62  93 CALM      30.11R FOG
SOMERSET       FOG       63  63 100 CALM      30.11R VSB 1/2
MIDDLESBORO    CLOUDY    64  64 100 CALM      30.14R FOG
MONTICELLO     FOG       61  61 100 NE9       30.12R VSB 3/4
$$





USA.gov is the U.S. government's official web portal to all federal, state and local government web resources and services.